Location: Newark
(49.2191°N, 12.6671°E)
Time: 04:22:38
(UTC+00:00)

Transit 4A - Pass Details

Date: 28 January 2020
Orbit: 872 x 973 km, 66.8° (Epoch: 19 February)

Event Time Altitude Azimuth Distance (km) Brightness Sun altitude
Rises 11:58:22 0° 324° (NW) 3,479 10.5 22.0°
Reaches altitude 10° 12:01:09 10° 335° (NNW) 2,533 9.8 22.0°
Maximum altitude 12:06:20 32° 37° (NE) 1,469 8.7 21.8°
Drops below altitude 10° 12:11:30 10° 100° (E) 2,531 10.2 21.6°
Sets 12:14:16 0° 110° (ESE) 3,475 11.0 21.5°
